Snowfall_Accumulation
0.0 0.0 0.0 0.0 0.0 0.0 0.0 0.0 0.0 0.0 0.0 0.0 0.0 0.0 0.0 0.0 0.0 0.0 0.0 0.0 0.0 0.4 0.1 0.2 0.1 0.5 0.6 0.5 0.7 0.7 0.7 0.6 1.0 0.6 0.5 0.3 0.1 0.0 0.0 0.2 0.0 0.0 0.0
0.0 0.0 0.0 0.0 0.0 0.0 0.0 0.0 0.0 0.0 0.0 0.0 0.0 0.0 0.0 0.0 0.0 0.0 0.0 0.0 0.0 0.0 0.0 0.0 0.0 0.2 0.2 0.4 0.8 1.1 1.1 0.8 0.8 1.0 0.6 0.3 0.1 0.1 0.1 0.3 0.7 0.0 0.0
0.0 0.0 0.0 0.0 0.0 0.0 0.0 0.0 0.0 0.0 0.0 0.0 0.0 0.0 0.0 0.0 0.0 0.0 0.0 0.0 0.0 0.1 0.1 0.1 0.1 0.1 0.1 0.1 0.1 0.2 0.1 0.2 0.3 0.4 0.1 0.1 0.1 0.0 0.0 0.0 0.8 0.0 0.1
0.0 0.0 0.0 0.0 0.0 0.0 0.0 0.0 0.0 0.0 0.0 0.0 0.0 0.0 0.0 0.0 0.0 0.0 0.0 0.0 0.0 0.0 0.3 0.1 0.0 0.0 0.1 0.0 0.3 0.3 0.2 0.2 0.1 0.0 0.0 0.0 0.0 0.0 0.1 0.3 0.4 0.3 0.5
0.0 0.0 0.0 0.0 0.0 0.0 0.0 0.0 0.0 0.0 0.0 0.0 0.0 0.0 0.0 0.0 0.0 0.0 0.0 0.1 0.3 0.5 0.2 0.2 0.0 0.1 0.4 0.2 0.2 0.3 0.1 0.1 0.1 0.1 0.1 0.1 0.1 0.2 0.5 0.2 0.3 0.4 0.5
0.2 0.0 0.0 0.0 0.0 0.0 0.0 0.0 0.0 0.0 0.0 0.0 0.4 0.0 0.0 0.4 0.7 0.0 0.4 0.5 0.6 0.0 0.5 0.1 0.0 0.4 0.4 0.1 0.0 0.1 0.3 0.4 0.6 0.4 0.3 0.2 0.3 0.3 0.7 1.3 0.9 0.7 0.6
0.4 0.3 0.4 1.4 0.0 0.9 0.9 1.3 1.6 1.2 0.8 1.7 1.8 1.7 2.5 2.5 2.2 1.0 0.5 0.3 0.3 0.7 0.2 0.0 0.0 0.4 0.2 0.1 0.1 0.1 0.0 0.1 0.3 0.7 0.9 1.2 1.2 0.9 0.9 0.9 0.9 0.9 0.8
2.7 3.2 2.9 4.1 4.7 6.1 6.3 5.9 5.2 4.0 3.6 3.8 5.1 4.2 4.3 4.3 2.6 2.2 2.3 2.4 2.2 1.4 2.0 1.8 1.5 0.5 0.2 0.1 0.1 0.1 0.2 0.2 0.5 0.5 0.4 0.4 0.8 0.7 0.5 0.3 0.7 0.3 0.6
7.9 8.6 8.7 9.3 8.5 8.1 8.8 8.1 7.3 7.0 5.9 6.5 5.0 5.1 4.5 3.8 3.7 3.5 4.3 3.0 2.4 2.1 2.2 1.4 1.2 1.7 3.2 4.3 0.8 0.9 1.3 1.7 2.1 2.7 0.8 1.0 1.1 0.5 0.3 0.7 0.9 2.5 1.7
15.3 15.9 11.2 9.9 9.4 10.6 8.9 10.4 11.0 7.6 7.2 6.6 10.2 6.7 6.6 3.3 4.0 6.2 4.0 5.0 2.8 6.6 3.1 3.0 3.9 1.8 2.2 2.3 0.9 1.4 1.9 2.8 2.3 1.9 2.2 1.7 1.9 3.5 3.5 2.0 4.8 6.1 5.3
18.0 15.9 13.1 12.9 13.7 12.7 11.7 11.5 14.9 16.5 12.9 7.9 9.1 9.4 8.6 6.6 10.1 11.5 6.3 9.5 8.2 4.5 4.9 2.8 4.4 5.5 6.2 2.8 3.2 4.5 7.5 3.6 4.1 3.2 4.8 5.5 4.0 3.7 5.2 5.2 2.9 3.8 6.0
17.0 14.1 11.9 10.9 11.0 12.1 11.7 13.1 12.6 13.5 16.9 19.3 17.6 15.7 15.1 14.5 14.6 12.0 11.2 10.9 9.0 7.9 7.1 6.5 6.6 5.8 4.9 7.0 6.0 6.2 7.2 6.3 6.6 6.8 12.2 17.1 15.4 17.3 17.0 12.7 11.1 11.3 11.1
12.6 12.0 10.4 9.5 8.8 7.7 7.9 9.4 10.3 10.6 10.2 10.4 10.8 12.5 14.1 14.7 15.7 15.1 15.8 14.9 13.1 11.9 12.3 11.8 11.2 8.0 6.5 7.3 7.9 9.5 10.8 7.1 11.2 20.6 21.3 20.5 19.4 15.5 14.4 13.1 12.0 7.7 7.6
4.7 5.4 6.0 5.9 6.2 6.0 5.3 5.2 5.1 6.3 6.8 7.8 7.9 7.7 7.6 7.1 8.7 9.1 9.4 8.6 8.2 10.5 10.7 12.0 10.9 13.8 15.8 13.3 19.1 18.1 14.1 18.1 19.3 19.9 19.4 18.2 15.5 14.0 12.8 12.2 12.0 10.6 9.3
4.2 4.4 4.4 4.4 4.0 3.8 4.0 3.5 3.1 4.4 3.1 3.2 4.3 4.3 4.6 6.6 8.0 6.9 6.7 8.2 8.5 9.2 13.8 19.8 19.8 20.0 19.5 19.7 19.2 19.0 18.6 17.5 16.4 15.8 14.8 13.4 11.5 10.3 9.4 8.4 7.8 8.9 9.4
2.1 3.3 2.7 3.3 2.3 2.3 1.6 3.4 3.7 3.3 3.3 2.2 2.0 5.7 6.4 10.8 14.2 13.7 13.4 13.3 13.9 13.3 12.8 12.9 12.8 11.8 11.5 11.5 10.3 10.3 9.4 8.9 9.0 8.5 7.9 7.4 7.3 7.4 9.1 8.5 8.5 9.5 10.8
2.3 2.5 3.0 2.5 2.2 3.3 3.6 2.4 3.1 5.7 7.3 8.8 11.0 10.9 10.0 10.8 9.4 9.5 9.0 8.2 8.1 6.5 8.2 7.9 7.4 6.8 6.3 4.8 4.6 4.5 4.8 4.2 2.7 5.3 4.8 4.5 5.6 6.0 4.6 6.0 6.0 7.0 6.5
10.9 9.3 5.7 7.3 9.9 11.8 12.6 13.5 14.0 14.8 14.7 16.5 16.3 13.5 12.4 11.3 9.8 8.9 8.3 6.5 6.4 5.8 5.4 4.9 4.4 3.6 2.8 2.2 1.7 1.0 1.5 1.5 1.8 2.4 2.3 2.0 3.0 3.4 4.0 3.5 3.5 4.3 4.3
18.6 19.9 19.4 18.7 17.2 14.9 13.1 12.4 12.1 12.1 11.9 12.1 12.7 12.1 10.1 8.8 7.2 6.1 5.1 5.1 5.2 4.1 3.1 2.4 1.7 1.3 1.4 1.4 1.2 1.5 1.6 1.9 1.7 1.3 1.5 1.3 1.2 1.9 2.5 2.2 2.1 2.4 2.6
12.9 11.7 10.9 10.1 9.6 8.7 7.9 7.0 6.9 6.5 6.3 6.1 5.5 5.4 4.3 2.8 3.0 2.2 1.4 1.3 1.4 1.6 1.5 1.1 0.7 0.5 1.0 1.0 0.9 0.9 1.4 1.3 1.2 1.2 1.1 1.1 1.0 1.0 1.2 1.4 1.5 1.9 2.0
7.8 7.9 7.1 6.3 6.2 5.5 4.8 3.8 3.3 3.1 2.6 2.5 2.7 1.6 0.7 1.1 1.6 1.1 0.7 0.8 1.2 1.0 1.1 1.1 0.6 0.9 0.9 0.9 1.3 1.6 1.6 1.3 1.3 1.5 1.5 1.4 1.6 2.0 1.6 1.7 1.7 1.3 1.1
4.4 3.7 3.2 2.7 2.3 2.0 1.5 1.6 1.8 1.6 1.0 1.3 1.0 1.0 0.8 0.5 1.1 1.1 1.3 1.2 0.8 0.8 1.0 1.7 1.9 1.6 1.7 1.8 2.1 2.6 1.8 1.9 2.1 2.2 2.4 1.7 2.1 2.1 2.3 2.4 2.3 2.3 2.0
1.7 1.5 1.5 1.5 1.1 1.1 1.1 0.7 0.9 0.9 0.9 1.7 2.0 1.5 0.6 0.8 0.7 0.6 0.9 1.1 1.9 2.6 2.5 2.8 3.3 2.7 2.0 2.1 2.7 3.1 3.1 2.2 2.0 2.8 3.2 2.2 1.8 2.0 2.2 2.3 1.9 2.2 1.7
0.8 0.8 0.8 0.8 0.8 1.0 1.3 1.2 1.0 1.0 0.6 1.9 2.5 2.3 2.2 2.0 2.7 2.5 2.9 3.4 3.9 4.0 3.8 3.8 3.9 3.8 3.6 3.3 3.1 2.9 2.6 2.4 2.4 2.3 3.0 3.4 2.3 1.7 2.2 2.3 2.0 2.1 1.9
0.8 0.8 0.6 0.7 1.1 1.1 1.6 1.8 1.7 1.9 2.3 2.4 2.7 2.1 2.0 2.7 3.4 3.5 3.5 2.8 2.4 2.7 2.7 2.3 3.3 3.5 3.6 4.0 4.3 4.0 3.8 2.9 3.1 3.2 3.9 3.6 2.9 2.7 2.9 2.7 2.2 2.5 2.2
0.7 0.7 1.2 1.5 1.5 2.1 2.4 2.6 3.1 3.1 3.1 3.1 3.7 3.8 3.3 2.7 2.1 2.1 1.7 1.5 1.3 1.1 1.4 1.6 1.3 1.5 1.6 1.7 1.8 2.4 2.1 2.4 3.3 3.5 3.9 3.8 3.7 3.4 3.3 2.9 2.4 3.0 2.9